Time,TemperatureF,DewpointF,PressureIn,WindDirection,WindDirectionDegrees,WindSpeedMPH,WindSpeedGustMPH,Humidity,HourlyPrecipIn,Conditions,Clouds,dailyrainin,SoftwareType,DateUTC
2013-06-08 00:03:00,51.0,49.0,-100.00,NW,305,0.0,1.0,93,-99.99,,,-99.99,,2013-06-08 04:03:00,
2013-06-08 00:13:00,51.0,49.0,-100.00,NE,55,0.0,1.0,93,-99.99,,,-99.99,,2013-06-08 04:13:00,
2013-06-08 00:23:00,51.0,49.0,-100.00,NNW,345,0.0,2.0,94,-99.99,,,-99.99,,2013-06-08 04:23:00,
2013-06-08 00:33:00,50.0,49.0,-100.00,West,275,0.0,2.0,94,-99.99,,,-99.99,,2013-06-08 04:33:00,
2013-06-08 00:42:00,50.0,49.0,-100.00,WNW,300,2.0,2.0,94,-99.99,,,-99.99,,2013-06-08 04:42:00,
2013-06-08 00:53:00,50.0,49.0,-100.00,NW,315,1.0,2.0,95,-99.99,,,-99.99,,2013-06-08 04:53:00,
2013-06-08 01:02:00,50.0,49.0,-100.00,WNW,295,0.0,1.0,95,-99.99,,,-99.99,,2013-06-08 05:02:00,
2013-06-08 01:12:00,50.0,49.0,-100.00,NW,305,0.0,1.0,95,-99.99,,,-99.99,,2013-06-08 05:12:00,
2013-06-08 01:22:00,50.0,49.0,-100.00,NW,305,0.0,0.0,95,-99.99,,,-99.99,,2013-06-08 05:22:00,
2013-06-08 01:32:00,50.0,48.0,-100.00,NW,305,0.0,0.0,95,-99.99,,,-99.99,,2013-06-08 05:32:00,
2013-06-08 01:42:00,49.0,48.0,-100.00,NW,305,0.0,0.0,96,-99.99,,,-99.99,,2013-06-08 05:42:00,
2013-06-08 01:52:00,49.0,48.0,-100.00,NW,305,0.0,0.0,96,-99.99,,,-99.99,,2013-06-08 05:52:00,
2013-06-08 02:02:00,49.0,48.0,-100.00,NW,305,0.0,0.0,96,-99.99,,,-99.99,,2013-06-08 06:02:00,
2013-06-08 02:12:00,49.0,48.0,-100.00,NW,305,0.0,0.0,96,-99.99,,,-99.99,,2013-06-08 06:12:00,
2013-06-08 02:22:00,49.0,48.0,-100.00,NW,305,1.0,1.0,96,-99.99,,,-99.99,,2013-06-08 06:22:00,
2013-06-08 02:32:00,49.0,48.0,-100.00,WNW,300,1.0,1.0,96,-99.99,,,-99.99,,2013-06-08 06:32:00,
2013-06-08 02:42:00,49.0,48.0,-100.00,WNW,300,0.0,1.0,96,-99.99,,,-99.99,,2013-06-08 06:42:00,
2013-06-08 02:52:00,48.0,47.0,-100.00,WNW,290,2.0,2.0,96,-99.99,,,-99.99,,2013-06-08 06:52:00,
2013-06-08 03:02:00,48.0,47.0,-100.00,WNW,295,1.0,2.0,96,-99.99,,,-99.99,,2013-06-08 07:02:00,
2013-06-08 03:12:00,49.0,47.0,-100.00,WNW,300,1.0,1.0,96,-99.99,,,-99.99,,2013-06-08 07:12:00,
2013-06-08 03:22:00,48.0,47.0,-100.00,NW,310,0.0,1.0,96,-99.99,,,-99.99,,2013-06-08 07:22:00,
2013-06-08 03:32:00,48.0,47.0,-100.00,NW,310,0.0,1.0,96,-99.99,,,-99.99,,2013-06-08 07:32:00,
2013-06-08 03:42:00,48.0,47.0,-100.00,NW,310,0.0,1.0,96,-99.99,,,-99.99,,2013-06-08 07:42:00,
2013-06-08 03:52:00,48.0,47.0,-100.00,NW,310,0.0,0.0,96,-99.99,,,-99.99,,2013-06-08 07:52:00,
2013-06-08 04:02:00,48.0,47.0,-100.00,North,10,0.0,1.0,96,-99.99,,,-99.99,,2013-06-08 08:02:00,
2013-06-08 04:12:00,49.0,48.0,-100.00,North,10,1.0,1.0,96,-99.99,,,-99.99,,2013-06-08 08:12:00,
2013-06-08 04:22:00,49.0,48.0,-100.00,NNE,15,0.0,2.0,96,-99.99,,,-99.99,,2013-06-08 08:22:00,
2013-06-08 04:32:00,48.0,47.0,-100.00,NNE,15,0.0,0.0,96,-99.99,,,-99.99,,2013-06-08 08:32:00,
2013-06-08 04:42:00,48.0,47.0,-100.00,NNE,15,0.0,0.0,96,-99.99,,,-99.99,,2013-06-08 08:42:00,
2013-06-08 04:52:00,48.0,47.0,-100.00,SW,230,0.0,1.0,96,-99.99,,,-99.99,,2013-06-08 08:52:00,
2013-06-08 05:02:00,48.0,47.0,-100.00,West,265,1.0,2.0,96,-99.99,,,-99.99,,2013-06-08 09:02:00,
2013-06-08 05:12:00,47.0,47.0,-100.00,West,265,2.0,2.0,96,-99.99,,,-99.99,,2013-06-08 09:12:00,
2013-06-08 05:22:00,47.0,46.0,-100.00,West,270,2.0,3.0,96,-99.99,,,-99.99,,2013-06-08 09:22:00,
2013-06-08 05:33:00,47.0,46.0,-100.00,West,265,2.0,2.0,96,-99.99,,,-99.99,,2013-06-08 09:33:00,
2013-06-08 05:43:00,47.0,46.0,-100.00,West,260,2.0,2.0,96,-99.99,,,-99.99,,2013-06-08 09:43:00,
2013-06-08 05:53:00,47.0,46.0,-100.00,West,270,2.0,2.0,96,-99.99,,,-99.99,,2013-06-08 09:53:00,
2013-06-08 06:03:00,47.0,46.0,-100.00,NW,305,1.0,2.0,96,-99.99,,,-99.99,,2013-06-08 10:03:00,
2013-06-08 06:12:00,47.0,46.0,-100.00,WNW,295,1.0,2.0,96,-99.99,,,-99.99,,2013-06-08 10:12:00,
2013-06-08 06:22:00,47.0,46.0,-100.00,WNW,295,0.0,1.0,96,-99.99,,,-99.99,,2013-06-08 10:22:00,
2013-06-08 06:33:00,47.0,46.0,-100.00,WNW,295,1.0,1.0,96,-99.99,,,-99.99,,2013-06-08 10:33:00,
2013-06-08 06:43:00,47.0,46.0,-100.00,WNW,300,1.0,2.0,96,-99.99,,,-99.99,,2013-06-08 10:43:00,
2013-06-08 06:52:00,47.0,47.0,-100.00,NW,315,0.0,1.0,96,-99.99,,,-99.99,,2013-06-08 10:52:00,
2013-06-08 07:02:00,48.0,47.0,-100.00,NNW,335,0.0,0.0,96,-99.99,,,-99.99,,2013-06-08 11:02:00,
2013-06-08 07:12:00,49.0,48.0,-100.00,WNW,300,0.0,0.0,96,-99.99,,,-99.99,,2013-06-08 11:12:00,
2013-06-08 07:22:00,49.0,49.0,-100.00,NW,315,0.0,1.0,96,-99.99,,,-99.99,,2013-06-08 11:22:00,
2013-06-08 07:32:00,51.0,50.0,-100.00,WNW,300,1.0,1.0,96,-99.99,,,-99.99,,2013-06-08 11:32:00,
2013-06-08 07:42:00,52.0,51.0,-100.00,WNW,285,1.0,1.0,96,-99.99,,,-99.99,,2013-06-08 11:42:00,
2013-06-08 07:52:00,53.0,52.0,-100.00,West,275,0.0,2.0,96,-99.99,,,-99.99,,2013-06-08 11:52:00,
2013-06-08 08:02:00,54.0,53.0,-100.00,NW,325,0.0,0.0,96,-99.99,,,-99.99,,2013-06-08 12:02:00,
2013-06-08 08:12:00,55.0,55.0,-100.00,NW,315,0.0,0.0,96,-99.99,,,-99.99,,2013-06-08 12:12:00,
2013-06-08 08:22:00,56.0,55.0,-100.00,NW,315,0.0,1.0,96,-99.99,,,-99.99,,2013-06-08 12:22:00,
2013-06-08 08:32:00,57.0,56.0,-100.00,WNW,295,1.0,2.0,95,-99.99,,,-99.99,,2013-06-08 12:32:00,
2013-06-08 08:42:00,58.0,56.0,-100.00,SSW,195,1.0,2.0,92,-99.99,,,-99.99,,2013-06-08 12:42:00,
2013-06-08 08:52:00,60.0,56.0,-100.00,WSW,250,1.0,2.0,87,-99.99,,,-99.99,,2013-06-08 12:52:00,
2013-06-08 09:02:00,61.0,55.0,-100.00,SW,230,1.0,3.0,80,-99.99,,,-99.99,,2013-06-08 13:02:00,
2013-06-08 09:12:00,63.0,54.0,-100.00,South,185,1.0,4.0,72,-99.99,,,-99.99,,2013-06-08 13:12:00,
2013-06-08 09:22:00,64.0,52.0,-100.00,South,180,3.0,4.0,65,-99.99,,,-99.99,,2013-06-08 13:22:00,
2013-06-08 09:32:00,64.0,52.0,-100.00,SE,145,2.0,5.0,63,-99.99,,,-99.99,,2013-06-08 13:32:00,
2013-06-08 09:42:00,65.0,51.0,-100.00,SSE,155,1.0,4.0,60,-99.99,,,-99.99,,2013-06-08 13:42:00,
2013-06-08 09:52:00,65.0,51.0,-100.00,SE,145,4.0,6.0,59,-99.99,,,-99.99,,2013-06-08 13:52:00,
2013-06-08 10:02:00,65.0,51.0,-100.00,SE,140,4.0,7.0,59,-99.99,,,-99.99,,2013-06-08 14:02:00,
2013-06-08 10:12:00,64.0,50.0,-100.00,SSE,155,3.0,9.0,59,-99.99,,,-99.99,,2013-06-08 14:12:00,
2013-06-08 10:22:00,66.0,51.0,-100.00,South,170,3.0,6.0,58,-99.99,,,-99.99,,2013-06-08 14:22:00,
2013-06-08 10:32:00,66.0,51.0,-100.00,SE,145,4.0,7.0,57,-99.99,,,-99.99,,2013-06-08 14:32:00,
2013-06-08 10:42:00,67.0,51.0,-100.00,SSW,205,2.0,4.0,56,-99.99,,,-99.99,,2013-06-08 14:42:00,
2013-06-08 10:52:00,67.0,50.0,-100.00,ESE,115,3.0,5.0,55,-99.99,,,-99.99,,2013-06-08 14:52:00,
2013-06-08 11:02:00,67.0,51.0,-100.00,ESE,110,2.0,4.0,56,-99.99,,,-99.99,,2013-06-08 15:02:00,
2013-06-08 11:12:00,67.0,50.0,-100.00,East,100,4.0,6.0,54,-99.99,,,-99.99,,2013-06-08 15:12:00,
2013-06-08 11:22:00,68.0,50.0,-100.00,SE,135,3.0,5.0,53,-99.99,,,-99.99,,2013-06-08 15:22:00,
2013-06-08 11:33:00,69.0,51.0,-100.00,SSE,150,2.0,4.0,53,-99.99,,,-99.99,,2013-06-08 15:33:00,
2013-06-08 11:42:00,69.0,51.0,-100.00,West,270,1.0,6.0,52,-99.99,,,-99.99,,2013-06-08 15:42:00,
2013-06-08 11:53:00,69.0,51.0,-100.00,SSW,200,2.0,6.0,52,-99.99,,,-99.99,,2013-06-08 15:53:00,
2013-06-08 12:03:00,67.0,50.0,-100.00,NW,325,2.0,7.0,53,-99.99,,,-99.99,,2013-06-08 16:03:00,
2013-06-08 12:12:00,69.0,50.0,-100.00,NNE,20,0.0,6.0,51,-99.99,,,-99.99,,2013-06-08 16:12:00,
2013-06-08 12:23:00,69.0,50.0,-100.00,NNE,20,1.0,6.0,49,-99.99,,,-99.99,,2013-06-08 16:23:00,
2013-06-08 12:33:00,70.0,50.0,-100.00,ENE,60,5.0,7.0,49,-99.99,,,-99.99,,2013-06-08 16:33:00,
2013-06-08 12:42:00,70.0,51.0,-100.00,WNW,300,2.0,6.0,49,-99.99,,,-99.99,,2013-06-08 16:42:00,
2013-06-08 12:53:00,71.0,51.0,-100.00,SSE,165,4.0,6.0,48,-99.99,,,-99.99,,2013-06-08 16:53:00,
2013-06-08 13:02:00,72.0,51.0,-100.00,SE,145,1.0,4.0,46,-99.99,,,-99.99,,2013-06-08 17:02:00,
2013-06-08 13:12:00,73.0,50.0,-100.00,West,270,3.0,6.0,44,-99.99,,,-99.99,,2013-06-08 17:12:00,
2013-06-08 13:23:00,73.0,49.0,-100.00,ESE,110,3.0,6.0,43,-99.99,,,-99.99,,2013-06-08 17:23:00,
2013-06-08 13:32:00,74.0,52.0,-100.00,South,185,2.0,9.0,45,-99.99,,,-99.99,,2013-06-08 17:32:00,
2013-06-08 13:42:00,72.0,51.0,-100.00,SW,235,3.0,7.0,47,-99.99,,,-99.99,,2013-06-08 17:42:00,
2013-06-08 13:52:00,71.0,50.0,-100.00,SSW,200,1.0,7.0,47,-99.99,,,-99.99,,2013-06-08 17:52:00,
2013-06-08 14:02:00,72.0,50.0,-100.00,ENE,60,3.0,6.0,45,-99.99,,,-99.99,,2013-06-08 18:02:00,
2013-06-08 14:12:00,72.0,49.0,-100.00,ESE,120,4.0,6.0,44,-99.99,,,-99.99,,2013-06-08 18:12:00,
2013-06-08 14:22:00,73.0,50.0,-100.00,East,90,1.0,4.0,43,-99.99,,,-99.99,,2013-06-08 18:22:00,
2013-06-08 14:32:00,73.0,50.0,-100.00,East,90,1.0,4.0,43,-99.99,,,-99.99,,2013-06-08 18:32:00,
2013-06-08 14:42:00,77.0,52.0,-100.00,SSW,210,6.0,8.0,41,-99.99,,,-99.99,,2013-06-08 18:42:00,
2013-06-08 14:52:00,76.0,50.0,-100.00,South,175,2.0,7.0,41,-99.99,,,-99.99,,2013-06-08 18:52:00,
2013-06-08 15:03:00,74.0,50.0,-100.00,SSW,200,2.0,6.0,41,-99.99,,,-99.99,,2013-06-08 19:03:00,
2013-06-08 15:13:00,74.0,49.0,-100.00,West,270,1.0,4.0,41,-99.99,,,-99.99,,2013-06-08 19:13:00,
2013-06-08 15:22:00,74.0,49.0,-100.00,East,85,4.0,8.0,41,-99.99,,,-99.99,,2013-06-08 19:22:00,
2013-06-08 15:32:00,78.0,52.0,-100.00,SSW,205,2.0,6.0,40,-99.99,,,-99.99,,2013-06-08 19:32:00,
2013-06-08 15:42:00,77.0,50.0,-100.00,South,180,2.0,11.0,38,-99.99,,,-99.99,,2013-06-08 19:42:00,
2013-06-08 15:53:00,78.0,51.0,-100.00,SSW,210,4.0,10.0,38,-99.99,,,-99.99,,2013-06-08 19:53:00,
2013-06-08 16:02:00,78.0,51.0,-100.00,SSW,205,2.0,11.0,37,-99.99,,,-99.99,,2013-06-08 20:02:00,
2013-06-08 16:12:00,77.0,50.0,-100.00,SSE,165,4.0,7.0,39,-99.99,,,-99.99,,2013-06-08 20:12:00,
2013-06-08 16:22:00,78.0,51.0,-100.00,SSE,150,1.0,7.0,38,-99.99,,,-99.99,,2013-06-08 20:22:00,
2013-06-08 16:32:00,77.0,50.0,-100.00,WSW,255,1.0,7.0,39,-99.99,,,-99.99,,2013-06-08 20:32:00,
2013-06-08 16:42:00,76.0,49.0,-100.00,South,175,4.0,7.0,38,-99.99,,,-99.99,,2013-06-08 20:42:00,
2013-06-08 16:52:00,76.0,50.0,-100.00,SW,220,2.0,7.0,39,-99.99,,,-99.99,,2013-06-08 20:52:00,
2013-06-08 17:02:00,75.0,50.0,-100.00,South,175,4.0,7.0,40,-99.99,,,-99.99,,2013-06-08 21:02:00,
2013-06-08 17:12:00,75.0,51.0,-100.00,South,185,3.0,8.0,42,-99.99,,,-99.99,,2013-06-08 21:12:00,
2013-06-08 17:22:00,78.0,52.0,-100.00,SW,220,3.0,7.0,40,-99.99,,,-99.99,,2013-06-08 21:22:00,
2013-06-08 17:33:00,77.0,51.0,-100.00,South,180,4.0,7.0,39,-99.99,,,-99.99,,2013-06-08 21:33:00,
2013-06-08 17:43:00,76.0,50.0,-100.00,SW,230,1.0,6.0,40,-99.99,,,-99.99,,2013-06-08 21:43:00,
2013-06-08 17:52:00,75.0,50.0,-100.00,WSW,240,1.0,6.0,40,-99.99,,,-99.99,,2013-06-08 21:52:00,
2013-06-08 18:02:00,74.0,50.0,-100.00,SSE,165,6.0,7.0,41,-99.99,,,-99.99,,2013-06-08 22:02:00,
2013-06-08 18:12:00,75.0,51.0,-100.00,South,190,3.0,7.0,41,-99.99,,,-99.99,,2013-06-08 22:12:00,
2013-06-08 18:23:00,76.0,51.0,-100.00,South,180,4.0,7.0,41,-99.99,,,-99.99,,2013-06-08 22:23:00,
2013-06-08 18:33:00,76.0,50.0,-100.00,SW,220,4.0,9.0,40,-99.99,,,-99.99,,2013-06-08 22:33:00,
2013-06-08 18:42:00,76.0,50.0,-100.00,SW,220,4.0,9.0,40,-99.99,,,-99.99,,2013-06-08 22:42:00,
2013-06-08 18:52:00,76.0,51.0,-100.00,SSE,165,1.0,6.0,41,-99.99,,,-99.99,,2013-06-08 22:52:00,
2013-06-08 19:02:00,78.0,51.0,-100.00,WSW,240,2.0,7.0,38,-99.99,,,-99.99,,2013-06-08 23:02:00,
2013-06-08 19:12:00,77.0,51.0,-100.00,SSW,210,2.0,6.0,39,-99.99,,,-99.99,,2013-06-08 23:12:00,
2013-06-08 19:22:00,77.0,51.0,-100.00,South,180,2.0,6.0,39,-99.99,,,-99.99,,2013-06-08 23:22:00,
2013-06-08 19:32:00,76.0,50.0,-100.00,South,170,0.0,4.0,40,-99.99,,,-99.99,,2013-06-08 23:32:00,
2013-06-08 19:42:00,76.0,50.0,-100.00,SW,215,2.0,3.0,40,-99.99,,,-99.99,,2013-06-08 23:42:00,
2013-06-08 19:52:00,75.0,50.0,-100.00,WSW,255,1.0,4.0,40,-99.99,,,-99.99,,2013-06-08 23:52:00,
2013-06-08 20:02:00,74.0,49.0,-100.00,SSW,205,1.0,4.0,41,-99.99,,,-99.99,,2013-06-09 00:02:00,
2013-06-08 20:12:00,73.0,49.0,-100.00,SSW,210,1.0,2.0,41,-99.99,,,-99.99,,2013-06-09 00:12:00,
2013-06-08 20:22:00,73.0,49.0,-100.00,SW,215,1.0,2.0,41,-99.99,,,-99.99,,2013-06-09 00:22:00,
2013-06-08 20:32:00,73.0,51.0,-100.00,West,275,0.0,1.0,44,-99.99,,,-99.99,,2013-06-09 00:32:00,
2013-06-08 20:42:00,72.0,50.0,-100.00,West,265,0.0,1.0,46,-99.99,,,-99.99,,2013-06-09 00:42:00,
2013-06-08 20:52:00,71.0,51.0,-100.00,SW,230,0.0,1.0,48,-99.99,,,-99.99,,2013-06-09 00:52:00,
2013-06-08 21:02:00,70.0,51.0,-100.00,SSW,210,0.0,1.0,49,-99.99,,,-99.99,,2013-06-09 01:02:00,
2013-06-08 21:12:00,69.0,51.0,-100.00,SE,130,0.0,0.0,51,-99.99,,,-99.99,,2013-06-09 01:12:00,
2013-06-08 21:22:00,68.0,52.0,-100.00,East,95,0.0,0.0,56,-99.99,,,-99.99,,2013-06-09 01:22:00,
2013-06-08 21:32:00,67.0,53.0,-100.00,NE,55,1.0,2.0,61,-99.99,,,-99.99,,2013-06-09 01:32:00,
2013-06-08 21:42:00,67.0,54.0,-100.00,ENE,60,1.0,2.0,62,-99.99,,,-99.99,,2013-06-09 01:42:00,
2013-06-08 21:52:00,66.0,54.0,-100.00,NE,40,1.0,2.0,64,-99.99,,,-99.99,,2013-06-09 01:52:00,
2013-06-08 22:02:00,65.0,53.0,-100.00,ENE,60,1.0,1.0,66,-99.99,,,-99.99,,2013-06-09 02:02:00,
2013-06-08 22:12:00,64.0,54.0,-100.00,ENE,75,1.0,1.0,68,-99.99,,,-99.99,,2013-06-09 02:12:00,
2013-06-08 22:22:00,64.0,54.0,-100.00,ENE,75,2.0,2.0,69,-99.99,,,-99.99,,2013-06-09 02:22:00,
2013-06-08 22:32:00,64.0,55.0,-100.00,ENE,60,2.0,3.0,71,-99.99,,,-99.99,,2013-06-09 02:32:00,
2013-06-08 22:42:00,64.0,55.0,-100.00,NE,55,2.0,3.0,71,-99.99,,,-99.99,,2013-06-09 02:42:00,
2013-06-08 22:52:00,64.0,55.0,-100.00,ENE,75,2.0,3.0,71,-99.99,,,-99.99,,2013-06-09 02:52:00,
2013-06-08 23:02:00,64.0,55.0,-100.00,East,85,3.0,4.0,70,-99.99,,,-99.99,,2013-06-09 03:02:00,
2013-06-08 23:12:00,64.0,54.0,-100.00,East,90,3.0,4.0,68,-99.99,,,-99.99,,2013-06-09 03:12:00,
2013-06-08 23:22:00,65.0,54.0,-100.00,East,90,2.0,4.0,68,-99.99,,,-99.99,,2013-06-09 03:22:00,
2013-06-08 23:33:00,65.0,54.0,-100.00,East,85,4.0,4.0,68,-99.99,,,-99.99,,2013-06-09 03:33:00,
2013-06-08 23:43:00,64.0,54.0,-100.00,East,80,4.0,4.0,68,-99.99,,,-99.99,,2013-06-09 03:43:00,
2013-06-08 23:53:00,64.0,54.0,-100.00,ENE,70,4.0,5.0,68,-99.99,,,-99.99,,2013-06-09 03:53:00,